Location: Vigo di Fassa
(46.4167°N, 11.6667°E)
Time: 15:21:32
(UTC+00:00)

SJ 16-02 - Pass Details

Date: 03 March 2021
Orbit: 605 x 617 km, 75.0° (Epoch: 15 April)

Event Time Altitude Azimuth Distance (km) Brightness Sun altitude
Rises 19:34:38 0° 341° (NNW) 2,883 5.3 -26.7°
Reaches altitude 10° 19:36:53 10° 344° (NNW) 1,976 4.4 -27.0°
Enters shadow 19:39:28 34° 352° (N) 1,012 2.6 -27.4°
